RH
4 4 4 4 6 8 9 9 11 11 10 12 10 8 10 11 12 16 18 22 26 27 25 25 27 25 23 27 34 39 42 45 48 51 57 60 61 64 61 60 61 63 62 60 60 54 49 47 45 46 47 46 43 42 42 44 47 47 51 57 60 63 64 59 55 56 56 54 52 50 47 43 41 42 43 42 39 40 40 37 34 32 29 24 22 23 21 21 21 20 20 22 23 20 16 15 13
4 6 5 6 8 9 10 9 11 13 14 15 11 10 11 9 13 19 20 23 26 23 22 23 25 25 23 26 30 36 44 47 48 52 55 58 61 61 57 58 61 61 59 59 58 51 47 47 47 44 45 45 43 45 47 47 46 47 51 55 59 62 65 62 57 56 57 55 56 53 49 45 42 41 42 41 38 39 42 41 39 37 37 31 25 24 22 21 21 20 20 21 23 21 18 16 13
5 7 7 7 8 9 11 11 12 13 15 15 13 13 13 12 15 23 23 23 25 21 21 22 25 27 24 25 27 34 46 49 50 53 54 55 56 58 56 56 59 58 56 57 53 48 47 46 46 45 46 48 49 50 51 49 47 49 52 54 59 62 64 63 60 59 59 56 57 54 52 50 44 41 42 41 37 37 41 42 43 40 41 38 28 27 24 21 20 19 20 21 22 21 20 18 14
5 9 9 9 9 9 13 13 13 14 14 14 14 13 19 22 20 25 23 21 22 21 21 21 24 27 24 25 27 31 41 46 47 51 53 52 52 55 56 55 55 53 53 52 48 45 43 42 43 46 49 52 53 51 50 49 46 48 53 55 57 59 63 64 62 61 61 58 58 57 55 52 45 42 43 41 35 35 39 42 43 42 43 41 30 28 26 22 20 19 20 21 21 21 22 19 16
7 10 10 10 11 11 14 15 13 14 13 13 15 14 25 30 25 27 24 23 24 21 21 21 23 25 24 26 27 31 36 39 42 46 49 49 50 52 53 53 51 50 50 46 44 42 38 38 40 43 49 54 52 48 46 45 43 45 50 55 56 56 60 64 64 62 59 58 57 58 59 55 47 43 43 39 33 32 35 39 42 42 42 40 32 28 25 22 20 19 20 22 22 23 23 20 17
9 10 10 10 11 12 15 18 15 14 10 10 14 12 22 28 27 29 25 26 26 23 21 21 24 25 26 27 27 31 33 34 37 42 46 46 48 49 46 47 47 45 44 42 41 39 36 36 39 41 46 51 50 45 42 42 42 43 47 52 55 55 59 62 63 63 60 58 56 57 60 59 53 47 45 40 34 31 30 32 36 40 41 40 35 29 25 21 19 19 21 23 21 23 26 21 18
10 10 9 10 11 12 17 19 17 15 8 8 14 12 19 26 25 27 27 27 28 27 24 23 26 25 27 30 30 32 32 31 32 38 44 42 40 39 38 41 41 39 40 40 40 38 35 37 41 44 45 46 47 45 42 42 41 41 44 49 52 52 56 60 62 63 61 58 55 57 59 60 59 52 48 42 34 31 29 28 28 33 37 39 36 29 25 21 18 18 22 24 21 24 28 23 18
11 11 9 11 13 13 15 16 14 14 8 8 14 14 19 23 21 23 25 26 29 29 26 25 24 24 28 30 32 34 32 31 29 31 36 35 32 31 33 36 36 34 38 39 41 41 39 40 43 44 45 46 46 45 43 42 41 40 42 46 48 48 52 56 59 60 57 54 54 57 58 59 58 54 50 44 37 30 26 25 24 26 30 35 34 29 24 19 17 18 21 23 22 24 28 25 20
10 12 12 12 15 14 14 13 11 10 7 9 14 15 20 20 19 21 20 23 26 26 27 24 20 24 29 27 30 32 31 30 28 28 29 31 31 30 31 33 32 33 36 38 41 43 43 43 43 44 45 45 44 43 43 42 41 40 40 42 42 43 47 50 53 53 51 53 56 58 60 60 56 53 53 47 41 32 23 22 22 23 26 29 30 26 21 18 18 18 20 21 23 25 27 27 21
10 13 15 14 18 18 15 13 11 9 7 10 13 14 18 17 17 19 18 21 24 24 26 24 21 25 27 26 29 29 28 27 26 27 29 30 31 30 29 29 30 33 36 38 40 42 43 44 43 44 44 45 44 42 42 41 42 41 38 40 40 40 44 46 48 48 50 54 58 59 59 62 56 52 56 50 44 36 25 22 22 23 24 24 26 24 19 17 18 19 21 22 24 26 27 29 23
11 12 15 17 20 20 18 14 11 10 7 10 13 14 14 13 15 17 18 22 23 23 24 23 23 23 24 28 30 30 29 29 27 27 28 28 30 30 29 28 29 32 34 35 36 38 40 41 42 42 43 43 42 42 41 38 40 38 35 37 37 39 43 46 45 46 49 51 55 56 54 58 56 50 55 54 48 41 30 24 22 24 24 22 23 22 18 17 18 18 20 21 24 27 28 30 26
11 13 14 16 20 19 17 14 12 12 10 11 12 12 12 10 13 15 17 23 22 22 23 22 22 22 26 30 32 31 30 30 29 28 27 25 27 27 26 27 28 29 30 29 30 32 34 36 37 37 38 38 37 39 38 35 36 33 31 32 33 35 40 44 44 45 49 49 52 56 53 53 53 50 54 57 53 45 37 30 25 24 24 21 20 19 18 17 18 19 19 19 22 27 28 29 27
12 14 14 16 16 14 14 13 14 13 14 16 15 13 11 11 11 13 17 22 22 22 23 21 22 24 27 30 32 31 28 28 27 27 27 25 25 24 23 25 27 27 26 26 25 26 28 31 31 31 31 31 32 34 35 34 33 33 32 32 32 34 37 42 45 47 50 52 55 58 53 49 50 51 54 59 56 48 42 38 30 25 25 22 18 18 18 17 19 19 18 19 20 26 28 29 28
13 14 15 17 15 14 13 12 14 13 16 19 18 16 13 13 14 14 18 23 23 23 23 21 22 24 26 30 32 30 27 26 25 26 27 27 27 25 25 24 24 24 24 24 23 23 23 25 26 27 27 27 28 29 32 34 34 35 35 35 35 38 39 39 44 49 52 55 57 56 50 43 46 51 55 59 56 49 45 44 38 29 26 23 19 19 18 19 21 20 18 18 17 24 30 28 29
12 13 15 16 17 17 15 14 13 14 18 19 18 17 15 15 17 17 19 22 24 22 22 22 22 23 25 28 28 27 26 25 24 24 25 27 28 28 28 26 24 22 22 20 20 20 20 21 21 22 24 25 26 27 30 32 33 34 35 37 39 41 40 39 45 51 55 56 54 51 45 41 45 51 54 55 52 50 48 48 45 36 28 23 20 19 18 18 21 20 18 18 17 23 30 30 29
11 13 14 15 17 17 15 15 14 15 19 20 19 17 17 18 19 19 19 20 21 21 21 21 21 21 23 24 24 25 25 22 21 22 22 24 27 28 29 29 27 25 22 18 18 19 19 19 19 19 20 21 25 26 28 29 30 32 34 37 39 40 37 39 49 57 60 58 53 48 46 46 48 53 52 51 50 53 54 51 51 42 30 24 21 18 17 15 17 18 18 18 17 22 29 31 30
12 13 14 14 16 16 14 15 16 18 21 20 20 19 19 19 19 20 19 20 21 21 22 20 20 21 23 23 24 25 23 22 22 21 19 19 20 22 24 25 27 25 21 20 21 21 21 21 18 18 18 19 22 25 30 29 28 30 33 36 38 37 32 36 49 58 60 59 54 49 49 50 51 54 54 54 51 52 56 54 53 47 33 25 21 18 17 15 14 16 16 17 18 21 25 29 30
13 13 15 14 15 15 15 19 19 20 21 20 20 19 18 17 17 19 19 20 20 21 22 20 21 22 23 22 24 25 23 23 23 19 17 17 17 18 19 20 21 21 19 22 23 22 23 25 22 19 19 20 21 23 29 30 29 28 30 35 36 34 29 32 41 49 55 55 51 49 51 51 53 58 61 63 57 52 55 59 57 50 40 29 23 20 18 14 12 14 14 14 17 21 22 24 27
13 13 14 14 14 13 16 22 21 22 21 20 21 18 17 17 16 18 19 20 19 21 22 20 22 25 24 24 26 26 23 23 22 19 16 16 18 19 18 17 17 17 16 19 20 20 21 23 23 22 21 21 21 23 25 27 31 31 29 32 34 34 30 28 35 43 47 45 43 49 54 52 55 64 67 66 62 53 52 60 61 56 48 36 28 24 19 14 11 11 12 13 18 22 20 20 22
12 12 13 12 12 13 18 22 21 23 21 18 20 17 17 18 15 16 19 19 18 20 21 19 21 23 24 25 26 25 24 22 20 18 16 16 18 19 18 16 16 16 15 15 17 18 19 20 21 22 21 19 22 24 23 24 29 32 32 33 34 36 33 29 35 43 46 42 40 48 56 56 60 69 69 67 65 59 53 56 61 63 57 44 34 28 21 17 13 11 11 13 17 18 18 19 20
13 12 12 11 12 15 19 22 19 22 21 16 18 17 16 17 14 15 17 19 19 19 19 17 18 19 20 24 24 24 23 21 20 19 17 17 18 19 19 17 15 15 15 15 15 16 16 18 20 21 20 19 21 23 23 22 25 30 34 37 35 37 38 33 34 42 49 50 47 48 55 58 63 69 69 69 67 65 63 59 62 66 62 49 40 32 24 20 17 14 11 14 17 17 18 20 22
15 13 12 12 13 16 18 18 16 19 20 17 18 19 16 15 15 15 15 18 19 18 18 18 19 19 20 22 23 23 22 21 21 20 19 19 19 19 18 17 16 15 15 15 14 14 14 16 18 19 20 19 19 22 23 21 22 26 32 37 36 37 40 36 33 39 47 53 55 54 56 60 63 68 71 72 67 65 70 68 65 67 65 55 44 38 30 24 21 16 14 19 22 22 24 23 25
16 14 12 13 14 15 15 15 15 17 19 18 16 17 15 15 16 16 15 17 18 17 18 20 21 21 22 22 22 22 22 21 22 21 20 20 19 18 18 17 17 16 16 14 13 15 15 16 17 17 19 20 20 23 25 21 22 24 28 33 36 37 39 38 36 39 45 51 58 61 62 64 68 73 76 74 67 65 71 76 73 72 71 63 51 44 38 30 23 19 18 21 23 24 25 26 27
15 14 13 14 14 15 15 14 16 16 17 19 16 16 15 15 17 16 16 16 17 19 18 20 21 22 23 23 22 22 22 22 21 21 20 20 19 18 17 17 17 16 15 13 12 14 16 16 16 16 17 20 22 26 27 23 22 24 25 28 32 37 42 43 41 43 48 52 58 65 66 66 67 72 76 75 71 67 69 76 79 78 76 69 58 49 43 37 28 22 21 20 21 22 23 24 25
14 14 15 14 15 16 14 14 16 15 16 17 15 16 16 15 15 15 16 16 16 19 19 21 22 21 23 24 23 22 23 23 20 20 20 19 18 17 16 16 16 15 14 13 12 13 15 15 16 16 15 20 23 25 27 24 23 24 25 26 28 37 45 45 43 44 48 51 56 62 65 66 68 71 74 75 72 68 69 74 78 80 79 76 70 58 47 43 37 28 24 21 21 22 21 22 21
14 13 14 15 16 16 14 14 14 14 16 15 13 14 15 14 14 14 15 15 14 17 19 21 22 22 24 24 24 24 24 23 21 20 19 17 17 17 16 15 15 14 14 13 12 13 14 14 14 15 15 19 23 23 26 25 24 24 26 26 27 35 45 45 44 45 46 49 53 58 61 65 71 73 74 76 75 73 74 75 77 80 82 82 79 68 56 52 47 39 33 27 24 22 20 19 19
15 14 14 14 16 15 15 15 13 12 14 14 12 13 14 14 15 14 15 14 13 15 18 20 20 21 23 24 24 23 23 23 22 20 18 17 16 16 15 14 15 15 14 12 13 14 15 14 14 15 15 19 22 23 24 25 25 23 23 24 24 29 36 40 44 47 46 48 51 55 57 58 64 69 72 77 80 79 77 77 78 79 81 84 84 78 70 66 60 51 41 34 30 25 22 20 19
16 14 14 14 14 14 15 15 14 13 12 12 13 12 12 13 14 14 14 15 14 15 18 19 19 20 20 22 22 21 22 22 21 19 17 16 15 15 15 15 15 16 15 12 14 15 15 16 16 17 19 20 21 22 24 24 24 23 21 20 21 22 24 29 35 42 46 50 53 52 51 51 56 62 67 74 79 82 81 79 79 79 78 83 87 85 80 75 71 63 48 40 39 32 28 27 23
16 14 16 16 15 15 15 14 14 14 12 12 12 12 12 11 12 12 12 14 16 18 18 17 18 19 19 20 20 20 20 20 19 18 17 17 16 16 15 16 16 16 16 13 14 15 16 18 16 16 20 21 20 21 22 23 23 22 21 19 19 19 19 19 22 28 36 48 55 51 48 49 53 61 65 70 78 82 81 80 81 80 78 82 88 88 84 80 80 75 60 49 45 36 33 33 29
16 16 16 17 17 16 15 14 14 14 14 13 12 14 16 12 11 11 11 12 15 16 15 14 16 18 17 18 19 19 20 20 20 19 18 18 18 17 17 17 18 17 16 14 13 15 16 18 15 13 17 20 19 19 20 21 22 21 21 19 17 17 18 19 20 20 26 39 47 50 54 54 53 59 63 65 72 77 79 79 83 84 81 82 85 88 89 87 86 80 71 62 50 41 39 36 33
16 16 16 16 17 16 14 14 16 16 16 15 13 16 18 14 11 11 12 13 14 14 13 13 14 16 17 16 18 19 19 20 20 20 20 21 20 19 18 19 19 18 17 15 14 14 15 14 13 12 12 14 15 16 17 19 21 20 17 15 14 19 23 25 22 20 25 32 36 44 57 58 55 58 59 58 62 68 74 75 78 83 83 84 83 86 89 89 87 82 79 76 63 51 47 41 35
15 16 16 16 16 15 14 15 16 16 16 15 15 17 17 14 13 12 13 14 14 14 14 14 14 16 18 18 18 19 20 20 21 22 23 23 21 21 21 21 20 20 18 16 14 15 15 14 13 12 11 11 11 12 13 16 18 15 11 10 13 20 26 25 22 21 26 32 31 35 47 53 54 57 57 56 57 62 69 70 70 74 79 84 85 84 85 85 86 86 84 83 76 65 56 48 39
16 17 18 18 16 15 15 16 16 15 15 15 15 18 18 15 13 13 13 13 14 14 14 14 15 17 19 19 20 20 21 21 22 24 25 24 23 23 23 23 22 22 21 19 16 15 15 14 12 11 10 10 9 9 10 12 13 11 10 11 13 17 20 20 19 22 26 29 29 31 41 49 51 55 59 60 56 58 64 67 67 69 74 79 79 79 80 81 83 85 85 83 83 77 65 56 47
19 18 18 18 17 17 17 16 17 16 16 17 17 18 19 17 15 15 14 14 14 14 14 15 15 18 20 20 21 21 21 23 24 25 26 25 25 25 25 24 24 23 24 23 18 15 14 13 12 11 11 10 10 11 12 12 13 14 14 14 15 16 15 14 16 22 25 27 27 30 37 44 48 51 57 62 63 64 64 64 65 68 70 71 71 74 78 79 80 83 84 83 87 85 74 64 56
24 24 21 21 20 20 21 20 21 22 20 20 19 18 21 20 17 16 16 16 16 15 15 17 17 18 20 20 21 23 23 23 25 26 26 26 26 27 26 26 25 24 25 25 20 15 14 12 11 11 11 11 13 15 17 16 16 17 17 15 16 17 15 13 16 20 23 23 24 25 27 33 41 45 46 52 62 69 67 65 69 71 70 67 65 67 70 71 72 77 79 80 83 84 77 69 62
28 29 27 26 25 25 28 29 29 29 25 21 20 20 22 23 21 20 18 18 18 17 17 18 18 19 20 20 21 24 24 24 25 26 25 25 25 25 25 25 26 25 24 22 19 17 15 13 12 12 12 14 17 18 19 19 18 17 17 15 15 15 14 12 12 14 14 15 16 19 21 21 25 32 38 42 47 53 54 58 69 79 77 70 64 62 64 64 65 67 71 75 78 79 77 73 67
30 31 31 28 28 30 31 33 35 36 33 27 24 22 22 23 25 25 22 22 21 20 19 19 21 21 22 22 22 24 25 26 26 25 24 24 24 24 25 25 26 26 24 22 20 20 17 13 13 13 13 16 20 21 21 21 18 16 16 16 16 15 13 11 11 9 9 9 10 13 15 12 10 15 23 30 33 37 40 42 50 61 64 60 56 53 55 57 59 61 64 69 72 73 73 72 68
30 31 32 31 33 34 31 31 36 38 39 35 29 24 24 23 24 25 25 27 27 23 20 20 21 23 23 24 24 24 26 28 28 28 27 25 25 25 24 26 27 26 26 24 22 21 18 15 14 14 13 17 21 20 20 21 18 16 15 15 15 15 14 12 11 10 10 9 10 10 10 8 7 8 10 13 18 22 26 29 32 37 40 41 41 41 42 45 48 51 56 61 65 66 67 67 66
32 31 32 33 35 37 36 35 36 37 39 39 32 25 26 27 24 25 25 27 28 25 21 19 21 23 25 26 26 25 26 29 30 31 32 30 29 27 26 26 26 26 26 25 23 23 21 17 16 16 14 15 19 20 19 18 16 15 15 14 14 15 15 13 12 11 11 11 11 11 10 10 10 10 10 10 11 11 13 17 20 23 26 28 30 31 33 36 39 41 44 49 54 57 58 61 63
35 33 33 33 33 36 41 43 42 42 39 35 31 29 30 29 26 25 23 20 21 23 22 20 22 24 24 26 27 27 27 28 32 34 34 36 34 29 25 25 25 25 25 25 24 25 23 19 16 17 16 15 17 19 19 16 15 14 14 14 15 16 16 15 13 12 12 12 12 12 12 12 11 11 11 12 13 11 9 9 10 13 15 17 17 20 23 25 28 30 31 34 40 47 49 53 59
38 36 35 34 33 33 36 42 44 44 40 34 31 33 36 31 26 25 22 18 18 22 24 21 21 23 25 26 26 27 27 27 32 35 34 35 35 29 25 25 25 25 24 24 25 25 25 21 17 17 18 17 16 16 17 15 14 15 15 15 16 18 18 17 15 13 13 13 13 12 12 11 11 11 11 12 14 13 12 11 10 10 13 15 15 16 18 19 18 19 21 24 28 34 40 44 51
39 40 38 36 36 34 35 38 40 40 40 36 32 38 43 35 26 25 23 23 23 22 24 23 20 22 25 25 22 23 25 24 27 30 30 33 34 29 26 25 24 25 25 25 25 25 26 23 17 17 19 18 16 16 15 15 16 17 16 17 18 19 20 20 17 16 15 14 13 13 13 12 11 12 12 11 13 14 15 14 14 15 16 18 18 17 18 19 18 15 14 15 18 22 29 34 40
38 39 38 37 36 36 36 36 37 38 37 35 32 36 43 35 24 23 23 24 24 23 25 25 23 22 23 22 18 18 21 22 22 22 25 31 35 31 27 25 24 25 25 26 26 25 26 23 18 18 19 18 18 17 16 16 17 17 17 17 19 20 21 20 19 18 17 16 15 14 14 14 14 13 13 12 13 14 16 15 16 17 18 19 19 18 18 20 20 18 16 14 14 17 21 24 26
33 33 33 33 32 33 35 33 34 36 32 33 33 32 37 32 22 22 23 22 22 22 24 26 26 24 21 20 17 15 17 20 20 19 20 26 30 28 25 25 24 25 26 26 27 26 24 22 19 19 20 18 18 18 17 17 17 17 18 18 19 21 20 20 19 19 18 17 16 16 16 15 15 15 15 14 14 14 14 14 15 15 15 17 18 17 16 17 17 19 20 20 18 18 20 20 19
29 30 30 30 30 32 33 30 31 32 29 32 33 31 33 30 22 22 24 24 24 25 24 26 29 27 23 23 20 15 14 16 17 17 18 20 24 24 23 24 24 25 26 26 28 26 22 21 20 20 21 19 18 19 19 18 18 18 19 19 20 20 20 20 20 19 19 18 17 16 16 16 16 16 15 15 14 14 14 13 13 13 14 15 17 18 18 17 16 17 17 20 21 21 22 23 23
29 31 31 29 28 31 33 31 29 29 30 29 27 28 32 31 27 26 26 28 31 34 34 34 35 32 27 24 22 17 13 14 14 16 17 19 20 22 22 22 23 26 26 27 29 27 22 22 21 22 22 21 20 21 20 21 21 20 20 21 21 20 21 21 20 20 19 18 17 17 16 16 16 16 16 16 15 15 15 15 14 13 13 13 14 15 16 18 19 19 18 19 21 22 25 27 28
29 30 30 28 28 28 29 29 25 26 30 28 24 28 34 36 35 31 30 33 37 39 40 42 41 37 31 26 24 19 15 15 16 16 17 19 22 23 22 21 24 27 28 29 30 26 23 22 22 23 24 23 23 22 22 23 23 21 21 22 22 22 22 21 20 20 19 18 17 17 16 16 16 16 16 16 16 15 15 15 15 15 15 14 14 13 13 14 16 18 19 19 19 21 24 27 28
29 29 27 28 28 26 26 25 25 30 37 33 29 31 34 37 36 32 34 38 40 40 40 42 41 38 34 30 27 23 20 20 20 20 19 19 22 25 24 23 26 30 31 32 30 26 24 23 23 24 25 25 23 23 22 23 24 23 23 24 24 23 22 22 21 19 18 19 18 17 17 17 16 16 17 18 18 17 16 16 15 16 15 15 15 15 14 14 13 13 13 15 17 18 20 24 25
28 29 29 30 28 29 32 33 36 39 40 38 37 41 42 40 36 33 36 39 41 41 39 37 36 35 34 32 30 28 26 26 27 28 26 22 23 26 26 27 30 33 33 32 29 28 27 26 25 25 25 25 25 23 22 24 25 25 24 25 24 23 22 22 21 19 18 19 19 17 17 18 17 16 16 17 18 18 17 17 16 15 16 16 15 15 15 15 15 14 12 12 13 15 18 21 23
32 34 38 40 36 38 41 43 46 47 45 46 45 48 49 45 41 38 37 38 39 38 37 36 33 32 32 32 32 31 30 32 33 33 33 29 28 29 28 28 30 30 31 30 28 28 29 30 29 27 25 24 24 22 21 23 24 25 25 25 24 23 23 23 22 19 18 19 18 18 18 17 17 16 16 16 17 18 18 17 17 16 16 15 15 14 14 14 15 15 15 14 12 13 14 17 20
36 36 39 42 41 43 44 45 51 53 55 56 50 49 50 48 49 44 38 38 37 35 36 36 34 32 31 32 34 34 33 33 35 35 36 36 34 33 32 32 32 30 29 30 30 29 30 32 31 31 29 27 23 21 20 21 22 23 24 23 22 22 22 23 23 21 20 19 18 18 18 17 17 17 16 17 17 17 18 18 18 18 17 15 15 14 14 14 16 17 16 15 14 13 13 14 16
39 38 38 41 42 42 42 43 47 49 54 54 48 48 48 44 45 41 37 38 35 32 32 32 35 33 30 33 35 38 38 37 37 38 38 39 39 36 35 35 37 36 33 32 33 32 31 31 32 32 31 28 25 22 21 20 20 21 22 22 21 22 22 23 24 22 20 19 19 19 18 17 17 17 17 17 18 18 18 18 17 17 16 16 15 15 16 16 17 17 17 16 15 14 14 14 15
45 44 43 44 43 43 46 49 47 48 55 52 44 46 46 41 40 36 33 32 29 31 31 30 34 36 34 35 34 35 38 41 42 42 41 41 41 40 37 36 38 41 40 36 35 34 32 30 29 30 29 28 28 26 23 22 21 20 20 21 21 21 21 22 23 24 22 21 21 20 20 18 18 18 18 18 19 19 18 18 18 17 17 17 17 16 17 18 18 18 17 17 16 16 16 15 16
43 45 43 43 43 44 49 52 51 52 58 51 41 44 47 45 44 35 28 29 32 37 39 35 36 40 41 40 38 36 37 40 43 44 43 42 42 42 41 39 40 42 42 38 37 36 34 31 28 28 28 27 28 27 24 23 24 21 20 20 20 20 21 21 22 23 23 22 22 21 20 19 19 19 19 19 19 20 19 18 18 18 18 19 19 18 18 19 19 19 19 18 17 17 17 16 15
33 38 39 39 43 47 47 48 52 56 55 46 39 40 40 40 39 33 31 37 41 44 45 44 42 44 45 44 43 42 41 40 41 42 43 42 43 42 41 41 41 40 40 40 39 37 34 33 31 29 30 28 26 25 24 25 26 24 21 19 20 21 21 21 21 22 23 22 22 22 20 19 20 20 20 20 20 19 18 17 18 18 19 19 19 19 19 18 19 20 20 20 20 19 18 16 16
33 37 38 36 39 44 45 45 50 54 53 46 41 39 35 32 31 33 39 45 45 45 47 45 43 44 47 46 45 46 46 46 44 42 43 43 44 43 41 42 41 39 39 38 38 38 35 34 35 34 33 31 29 28 27 27 26 24 21 20 22 23 22 22 22 22 23 23 22 22 21 20 20 21 20 20 20 18 17 18 18 18 19 19 20 20 20 20 20 20 20 21 22 23 22 18 16
37 43 42 39 39 40 42 44 43 47 53 51 48 46 38 32 31 35 44 48 44 42 44 44 43 42 44 45 45 44 44 44 43 42 42 43 45 44 43 44 43 42 41 39 38 38 36 35 35 35 34 32 31 30 29 28 26 23 23 22 22 24 24 25 24 23 23 23 23 22 22 21 21 21 21 20 19 19 18 19 19 19 19 20 21 21 22 23 22 22 21 20 21 23 24 23 20
35 41 42 41 41 41 47 51 46 47 56 56 57 59 45 33 35 37 42 47 44 39 39 43 45 43 42 41 39 38 40 42 43 42 42 41 42 44 45 45 46 46 47 48 48 45 40 37 34 33 32 31 31 31 30 28 27 26 26 25 25 25 25 25 25 25 24 23 23 22 22 22 22 22 21 20 20 20 20 20 20 20 21 21 22 23 25 26 27 27 25 22 21 22 23 24 24